パンスターズ彗星

C/2017 T2 ( PanSTARRS )

English version
Home page
Updated on April 13, 2018

---------------------------------------------------------------------

・ プロフィール

発見日 2017年10月2日
発見光度 19.9等
発見者 Pan-STARRS 1 telescope (Haleakala)

・ 写真集

・ 軌道要素

Epoch 2020 Apr. 21.0 TT = JDT 2458960.5
T 2020 May 4.96379 TT                                   MPCW
q   1.6151273            (2000.0)            P               Q
z  +0.0002357      Peri.   92.99443     -0.50996233     -0.40634296
 +/-0.0000142      Node    64.37825     -0.16278123     -0.81988060
e   0.9996194      Incl.   57.23039     +0.84465419     -0.40333758
From 154 observations 2017 Sept. 15-2018 Mar. 5, mean residual 0".3.

・ 星図

・ 光度変化

        m1 = 4.5 + 5 logΔ + 10.0 log r

---------------------------------------------------------------------

軌道要素はM.P.E.C. 2018-F152に掲載されたものです。
星図はステラナビゲータ Ver.10 (アストロアーツ) で作成したものです。
光度グラフはComet for Windowsで作成したものです。

---------------------------------------------------------------------

Copyright(C) Seiichi Yoshida (comet@aerith.net). All rights reserved.